Meteo Giornale » Osservazioni meteo Stati Uniti (USA) » Newport

ore: 09:56 - Osservazioni Meteo Newport
Lat. 44° 56' N Lon. 72° 12' W Alt. 233 metri s.l.m.

coperto_neve America/New_York

0 °C

Neve Debole

Temp. 24 Ore

0 °C

4 °C

Nord-Ovest

14.8 Km/h

Dew point 0 °C

Umidità 100 %

Visibilità  2 Km

Il sole sorge alle ore 06:23

Il sole tramonta alle ore 19:20

Data e Ora Cielo e Fenomeni T °C DP °C Um. % Pres. hPa Vis. km Vento km/h
Oggi h: 09:56 coperto_neve Neve Debole 0 0 100 1008 2 NO 14.8
Oggi h: 09:55 coperto_neve Neve Debole 0 0 100 1008 2 N/NO 14.8
Oggi h: 09:35 coperto_neve Neve Debole 0 0 100 1008 2 N/NO 16.7
Oggi h: 09:15 coperto_neve Neve Debole 0 0 100 1008 2 N/NO 16.7
Oggi h: 08:55 coperto_neve Neve Debole 0 0 100 1008 5 N/NO 14.8
Oggi h: 08:36 coperto_neve Neve Debole 0 0 100 1008 3 NO 11.1
Oggi h: 08:35 coperto_neve Neve Debole 0 0 100 1008 3 NO 14.8
Oggi h: 08:15 coperto_neve Neve Debole 0 0 100 1008 3 NO 9.3
Oggi h: 07:56 coperto_neve Neve Debole 0 0 100 1008 3 N/NO 11.1
Oggi h: 07:55 coperto_neve Neve Debole 0 0 100 1008 2 N/NO 11.1
Oggi h: 07:35 coperto_neve Neve Debole 0 0 100 1008 2 N/NO 11.1
Oggi h: 07:16 coperto_neve Neve Debole 0 0 100 1008 2 NO 7.4
Oggi h: 07:15 coperto_neve Neve Debole 0 0 100 1008 2 NO 7.4
Oggi h: 06:55 coperto_neve Neve Debole 0 -1 92 1008 5 N 16.7
Oggi h: 06:36 coperto Coperto 0 -1 92 1008 11 N 20.3
Oggi h: 06:35 coperto Coperto 0 -1 92 1008 11 N 22.2
Oggi h: 06:16 coperto Coperto 0 -1 92 1008 11 N 22.2
Oggi h: 06:15 coperto Coperto 0 -1 92 1008 11 N 24
Oggi h: 05:55 coperto_neve Neve Debole 0 -1 92 1008 8 N/NO 18.5
Oggi h: 05:35 coperto Coperto 0 -1 92 1008 10 N/NO 22.2
Oggi h: 05:16 coperto Coperto 0 -2 86 1008 10 N 18.5
Oggi h: 05:15 coperto Coperto 0 -2 86 1008 10 N 16.7
Oggi h: 04:55 coperto Coperto 0 -1 92 1008 10 N/NO 11.1
Oggi h: 04:35 coperto Coperto 0 -1 92 1008 10 N/NO 14.8
Oggi h: 04:16 coperto Coperto 0 -1 92 1008 10 N/NO 13
Oggi h: 04:15 coperto Coperto 0 -1 92 1008 10 N/NO 14.8
Oggi h: 03:56 coperto Coperto 0 -1 92 1008 10 N 13
Oggi h: 03:55 coperto Coperto 0 -1 92 1008 10 N 13
Oggi h: 03:35 coperto Coperto 0 -1 92 1008 10 N/NO 18.5
Oggi h: 03:15 coperto Coperto 0 -1 92 1008 10 N/NO 16.7
Oggi h: 02:56 coperto Coperto 0 -1 92 1008 10 N/NO 16.7
Oggi h: 02:55 coperto Coperto 0 -1 92 1008 10 N/NO 16.7
Oggi h: 02:35 coperto Coperto 0 -1 92 1009 10 N/NO 14.8
Oggi h: 01:55 coperto Coperto 0 -1 92 1009 10 N/NO 13
Oggi h: 01:35 coperto Coperto 0 -1 92 1009 10 N 13
Oggi h: 00:55 coperto Coperto 0 -1 92 1009 10 N/NO 14.8
Oggi h: 00:16 coperto Coperto 0 -1 92 1009 10 N/NO 14.8
Oggi h: 00:15 coperto Coperto 0 -1 92 1009 10 N/NO 11.1
Ieri h: 23:56 coperto Coperto 0 -1 92 1009 10 N/NO 14.8
Ieri h: 23:55 coperto Coperto 0 -1 92 1009 10 N/NO 14.8
Ieri h: 23:36 coperto Coperto 0 -1 92 1010 10 N 14.8
Ieri h: 23:35 coperto Coperto 0 -1 92 1010 10 N 13
Ieri h: 23:16 coperto Coperto 1 -1 86 1010 10 N 14.8
Ieri h: 23:15 coperto Coperto 1 -1 86 1010 10 N 14.8
Ieri h: 22:55 coperto Coperto 0 -1 92 1010 10 N 18.5
Ieri h: 22:35 coperto Coperto 0 -1 92 1010 10 N 14.8
Ieri h: 22:15 coperto Coperto 1 -1 86 1010 10 N 16.7
Ieri h: 21:56 coperto Coperto 1 -1 86 1010 10 N 18.5
Ieri h: 21:55 coperto Coperto 1 -1 86 1010 10 N 18.5
Ieri h: 21:35 coperto Coperto 1 -1 86 1010 10 N 18.5
Ieri h: 21:15 coperto Coperto 2 0 86 1010 10 N 20.3
Ieri h: 20:55 coperto Coperto 2 0 86 1010 10 N/NO 18.5
Ieri h: 20:35 coperto Coperto 2 0 86 1010 10 N 18.5
Ieri h: 20:15 coperto Coperto 2 0 86 1010 10 N 20.3
Ieri h: 19:55 coperto Coperto 2 0 86 1010 10 N 20.3
Ieri h: 19:36 coperto Coperto 2 -1 80 1010 10 N/NO 20.3
Ieri h: 19:35 coperto Coperto 2 0 86 1010 10 N/NO 18.5
Ieri h: 18:55 coperto Coperto 3 -1 74 1010 10 N/NO 20.3
Ieri h: 18:36 coperto Coperto 3 -1 74 1010 10 N/NO 18.5
Ieri h: 18:35 coperto Coperto 3 -1 74 1010 10 N/NO 16.7
Ieri h: 17:55 coperto Coperto 3 -1 74 1010 10 N 14.8
Ieri h: 17:36 coperto Coperto 3 -1 74 1010 10 N/NO 18.5
Ieri h: 17:35 coperto Coperto 3 -1 74 1010 10 N/NO 18.5
Ieri h: 17:15 coperto Coperto 3 -1 74 1010 10 N/NO 22.2
Ieri h: 16:56 coperto Coperto 4 -1 69 1010 10 N/NO 14.8
Ieri h: 16:55 coperto Coperto 4 -1 69 1010 10 N/NO 14.8
Ieri h: 16:35 coperto Coperto 4 -2 64 1010 10 N/NO 14.8
Ieri h: 15:56 coperto Coperto 4 -1 69 1010 10 N/NO 16.7
Ieri h: 15:55 coperto Coperto 4 -1 69 1010 10 N 16.7
Ieri h: 15:35 coperto Coperto 4 -1 69 1010 10 N 18.5
Ieri h: 15:15 coperto Coperto 4 -1 69 1010 10 N/NO 18.5
Ieri h: 14:15 coperto Coperto 3 -1 74 1010 10 N/NO 16.7
Ieri h: 13:55 coperto Coperto 3 -2 69 1011 10 N/NO 16.7
Ieri h: 13:35 coperto Coperto 4 -1 69 1011 10 N/NO 16.7
Ieri h: 13:15 coperto Coperto 4 -1 69 1011 10 N 20.3
Ieri h: 11:56 coperto Coperto 4 -2 64 1011 10 N 16.7
Ieri h: 11:55 coperto Coperto 4 -2 64 1011 10 N 18.5
Ieri h: 11:35 coperto Coperto 4 -2 64 1011 10 N 20.3
Ieri h: 10:36 nuvoloso Nuvoloso 2 -2 74 1012 10 N 13
Ieri h: 10:35 nuvoloso Nuvoloso 2 -2 74 1012 10 N 11.1